Latest Weather Observations for St Kilda Harbour RMYS

IDV60801

Issued at 5:02 am EST Tuesday 4 August 2015 (issued every 30 minutes, with the page automatically refreshed every 10 minutes)

About weather observations | Map of weather stations | Latest weather observations for VIC | Other Formats
Station Details ID: 086220 Name: ST KILDA HARBOUR - RMYS Lat: -37.86 Lon: 144.96 Height: 6.4 m
Data from the previous 72 hours. | See also: Recent months for locations in Victoria
Date/Time
EST
Temp
°C
App
Temp
°C
Dew
Point
Rel
Hum
%
Delta-T
°C
Wind Press
QNH
hPa
Press
MSL
hPa
Rain
since 9 am
mm
Dir
 
Spd
km/h
Gust
km/h
Spd
kts
Gust
kts
04/05:00am - - - - - NNW 11 17 6 9 - - -
04/04:30am - - - - - NNW 13 19 7 10 - - -
04/04:00am - - - - - NNW 7 11 4 6 - - -
04/03:30am - - - - - NW 17 20 9 11 - - -
04/03:00am - - - - - NW 17 24 9 13 - - -
04/02:30am - - - - - WNW 19 24 10 13 - - -
04/02:00am - - - - - WNW 20 24 11 13 - - -
04/01:30am - - - - - WNW 15 20 8 11 - - -
04/01:00am - - - - - WNW 13 17 7 9 - - -
04/12:30am - - - - - WNW 17 20 9 11 - - -
04/12:00am - - - - - WNW 13 19 7 10 - - -
 
Date/Time
EST
Temp
°C
App
Temp
°C
Dew
Point
Rel
Hum
%
Delta-T
°C
Wind Press
QNH
hPa
Press
MSL
hPa
Rain
since 9 am
mm
Dir
 
Spd
km/h
Gust
km/h
Spd
kts
Gust
kts
03/11:30pm - - - - - NW 13 17 7 9 - - -
03/11:00pm - - - - - NNW 11 15 6 8 - - -
03/10:30pm - - - - - W 19 22 10 12 - - -
03/10:00pm - - - - - WNW 20 24 11 13 - - -
03/09:30pm - - - - - WNW 19 26 10 14 - - -
03/09:00pm - - - - - W 17 20 9 11 - - -
03/08:30pm - - - - - WSW 22 28 12 15 - - -
03/08:00pm - - - - - WSW 26 32 14 17 - - -
03/07:30pm - - - - - WSW 24 28 13 15 - - -
03/07:00pm - - - - - WSW 26 32 14 17 - - -
03/06:30pm - - - - - WSW 32 39 17 21 - - -
03/06:00pm - - - - - WSW 26 32 14 17 - - -
03/05:30pm - - - - - W 22 28 12 15 - - -
03/05:00pm - - - - - WSW 37 50 20 27 - - -
03/04:58pm - - - - - WSW 33 50 18 27 - - -
03/04:30pm - - - - - SW 26 30 14 16 - - -
03/04:00pm - - - - - SSW 30 35 16 19 - - -
03/03:30pm - - - - - SSW 30 35 16 19 - - -
03/03:00pm - - - - - WSW 20 26 11 14 - - -
03/02:30pm - - - - - SW 33 39 18 21 - - -
03/02:10pm - - - - - SSW 33 52 18 28 - - -
03/02:00pm - - - - - S 28 32 15 17 - - -
03/01:30pm - - - - - SW 26 32 14 17 - - -
03/01:11pm - - - - - SSW 32 50 17 27 - - -
03/01:00pm - - - - - SSW 43 50 23 27 - - -
03/12:47pm - - - - - SW 35 46 19 25 - - -
03/12:30pm - - - - - SW 33 39 18 21 - - -
03/12:00pm - - - - - SW 41 50 22 27 - - -
03/11:30am - - - - - WSW 37 48 20 26 - - -
03/11:00am - - - - - WSW 33 43 18 23 - - -
03/10:30am - - - - - WSW 39 44 21 24 - - -
03/10:00am - - - - - WSW 32 44 17 24 - - -
03/09:30am - - - - - W 33 44 18 24 - - -
03/09:00am - - - - - W 33 39 18 21 - - -
03/08:30am - - - - - W 43 57 23 31 - - -
03/08:24am - - - - - W 33 56 18 30 - - -
03/08:00am - - - - - W 30 37 16 20 - - -
03/07:30am - - - - - W 30 37 16 20 - - -
03/07:00am - - - - - W 35 44 19 24 - - -
03/06:32am - - - - - WSW 48 67 26 36 - - -
03/06:30am - - - - - WSW 50 67 27 36 - - -
03/06:00am - - - - - W 48 67 26 36 - - -
03/05:46am - - - - - W 41 63 22 34 - - -
03/05:30am - - - - - WNW 32 43 17 23 - - -
03/05:00am - - - - - WNW 35 44 19 24 - - -
03/04:30am - - - - - WNW 30 37 16 20 - - -
03/04:00am - - - - - W 39 50 21 27 - - -
03/03:43am - - - - - W 41 59 22 32 - - -
03/03:30am - - - - - WNW 41 52 22 28 - - -
03/03:00am - - - - - WNW 39 50 21 27 - - -
03/02:30am - - - - - NW 39 48 21 26 - - -
03/02:00am - - - - - NW 37 48 20 26 - - -
03/01:39am - - - - - NW 37 56 20 30 - - -
03/01:30am - - - - - NW 37 46 20 25 - - -
03/01:00am - - - - - NW 37 46 20 25 - - -
03/12:30am - - - - - NW 39 50 21 27 - - -
03/12:00am - - - - - NW 35 48 19 26 - - -
 
Date/Time
EST
Temp
°C
App
Temp
°C
Dew
Point
Rel
Hum
%
Delta-T
°C
Wind Press
QNH
hPa
Press
MSL
hPa
Rain
since 9 am
mm
Dir
 
Spd
km/h
Gust
km/h
Spd
kts
Gust
kts
02/11:30pm - - - - - NW 28 43 15 23 - - -
02/11:00pm - - - - - NW 33 41 18 22 - - -
02/10:30pm - - - - - NW 30 41 16 22 - - -
02/10:00pm - - - - - WNW 32 39 17 21 - - -
02/09:30pm - - - - - NW 33 43 18 23 - - -
02/09:00pm - - - - - WNW 28 37 15 20 - - -
02/08:30pm - - - - - WNW 20 28 11 15 - - -
02/08:00pm - - - - - WNW 30 39 16 21 - - -
02/07:30pm - - - - - WNW 32 41 17 22 - - -
02/07:00pm - - - - - W 37 50 20 27 - - -
02/06:30pm - - - - - W 44 69 24 37 - - -
02/06:24pm - - - - - W 43 69 23 37 - - -
02/06:00pm - - - - - W 33 41 18 22 - - -
02/05:30pm - - - - - WSW 28 33 15 18 - - -
02/05:17pm - - - - - WSW 35 54 19 29 - - -
02/05:05pm - - - - - WNW 32 54 17 29 - - -
02/05:04pm - - - - - WNW 30 48 16 26 - - -
02/05:00pm - - - - - WNW 28 35 15 19 - - -
02/04:30pm - - - - - NW 32 43 17 23 - - -
02/04:22pm - - - - - NW 35 54 19 29 - - -
02/04:00pm - - - - - NW 35 50 19 27 - - -
02/03:53pm - - - - - WNW 39 57 21 31 - - -
02/03:30pm - - - - - NW 41 54 22 29 - - -
02/03:00pm - - - - - WNW 39 59 21 32 - - -
02/02:30pm - - - - - NW 41 59 22 32 - - -
02/02:21pm - - - - - NW 35 59 19 32 - - -
02/02:00pm - - - - - WNW 37 48 20 26 - - -
02/01:30pm - - - - - NW 35 46 19 25 - - -
02/01:04pm - - - - - WNW 41 59 22 32 - - -
02/01:00pm - - - - - WNW 43 59 23 32 - - -
02/12:30pm - - - - - NW 39 52 21 28 - - -
02/12:00pm - - - - - WNW 35 46 19 25 - - -
02/11:30am - - - - - WNW 41 48 22 26 - - -
02/11:00am - - - - - WNW 39 46 21 25 - - -
02/10:32am - - - - - NW 28 50 15 27 - - -
02/10:30am - - - - - NW 28 44 15 24 - - -
02/10:00am - - - - - NNW 24 35 13 19 - - -
02/09:30am - - - - - NNW 24 32 13 17 - - -
02/09:00am - - - - - NNW 22 30 12 16 - - -
02/08:30am - - - - - NNW 24 32 13 17 - - -
02/08:00am - - - - - NNW 20 28 11 15 - - -
02/07:30am - - - - - NNW 22 28 12 15 - - -
02/07:00am - - - - - NNW 20 24 11 13 - - -
02/06:30am - - - - - NNW 19 24 10 13 - - -
02/06:00am - - - - - NNW 15 19 8 10 - - -
02/05:30am - - - - - NNW 17 22 9 12 - - -
02/05:00am - - - - - NNW 15 20 8 11 - - -
02/04:30am - - - - - NNW 15 20 8 11 - - -
02/04:00am - - - - - NNW 17 20 9 11 - - -
02/03:30am - - - - - NNW 15 20 8 11 - - -
02/03:00am - - - - - NNW 15 19 8 10 - - -
02/02:30am - - - - - NNW 15 20 8 11 - - -
02/02:00am - - - - - NNW 15 17 8 9 - - -
02/01:30am - - - - - NNW 15 20 8 11 - - -
02/01:00am - - - - - NNW 11 15 6 8 - - -
02/12:30am - - - - - NNW 11 17 6 9 - - -
02/12:00am - - - - - NNW 13 17 7 9 - - -
 
Date/Time
EST
Temp
°C
App
Temp
°C
Dew
Point
Rel
Hum
%
Delta-T
°C
Wind Press
QNH
hPa
Press
MSL
hPa
Rain
since 9 am
mm
Dir
 
Spd
km/h
Gust
km/h
Spd
kts
Gust
kts
01/11:30pm - - - - - NNW 9 15 5 8 - - -
01/11:00pm - - - - - NNW 15 19 8 10 - - -
01/10:30pm - - - - - NNW 11 15 6 8 - - -
01/10:00pm - - - - - NNW 11 13 6 7 - - -
01/09:30pm - - - - - WNW 7 9 4 5 - - -
01/09:00pm - - - - - NW 7 9 4 5 - - -
01/08:30pm - - - - - NW 6 7 3 4 - - -
01/08:00pm - - - - - NW 6 7 3 4 - - -
01/07:30pm - - - - - WNW 9 11 5 6 - - -
01/07:00pm - - - - - W 7 9 4 5 - - -
01/06:30pm - - - - - NW 11 13 6 7 - - -
01/06:00pm - - - - - WNW 9 11 5 6 - - -
01/05:30pm - - - - - WNW 6 6 3 3 - - -
01/05:00pm - - - - - WSW 7 9 4 5 - - -
01/04:30pm - - - - - WSW 7 9 4 5 - - -
01/04:00pm - - - - - WSW 9 11 5 6 - - -
01/03:30pm - - - - - WSW 9 11 5 6 - - -
01/03:00pm - - - - - SW 9 13 5 7 - - -
01/02:30pm - - - - - SW 7 11 4 6 - - -
01/02:00pm - - - - - SW 9 11 5 6 - - -
01/01:30pm - - - - - SW 11 13 6 7 - - -
01/01:00pm - - - - - SW 11 13 6 7 - - -
01/12:30pm - - - - - WSW 13 17 7 9 - - -
01/12:00pm - - - - - WSW 17 20 9 11 - - -
01/11:30am - - - - - WSW 20 24 11 13 - - -
01/11:00am - - - - - WSW 22 24 12 13 - - -
01/10:30am - - - - - W 17 20 9 11 - - -
01/10:00am - - - - - SW 24 32 13 17 - - -
01/09:30am - - - - - SW 37 48 20 26 - - -
01/09:28am - - - - - SW 39 48 21 26 - - -
01/09:00am - - - - - WSW 37 48 20 26 - - -
01/08:31am - - - - - WNW 28 54 15 29 - - -
01/08:30am - - - - - WNW 26 32 14 17 - - -
01/08:00am - - - - - NNW 26 33 14 18 - - -
01/07:30am - - - - - NNW 32 46 17 25 - - -
01/07:00am - - - - - N 33 46 18 25 - - -
01/06:32am - - - - - N 39 59 21 32 - - -
01/06:30am - - - - - N 41 59 22 32 - - -
01/06:00am - - - - - NNW 37 57 20 31 - - -
01/05:32am - - - - - N 39 57 21 31 - - -
01/05:30am - - - - - NNW 41 56 22 30 - - -
01/05:03am - - - - - N 32 59 17 32 - - -

Other Formats:

Comma delimited format used in spreadsheet applications
http://www.bom.gov.au/fwo/IDV60801/IDV60801.95864.axf

JavaScript Object Notation format (JSON) in row-major order
http://www.bom.gov.au/fwo/IDV60801/IDV60801.95864.json